Time,TemperatureF,DewpointF,PressureIn,WindDirection,WindDirectionDegrees,WindSpeedMPH,WindSpeedGustMPH,Humidity,HourlyPrecipIn,Conditions,Clouds,dailyrainin,SoftwareType,DateUTC
2013-12-04 00:02:00,34.5,34.5,29.89,NE,45,0.0,0.0,100,0.00,OVC,,0.00,WeatherDisplay:10.37,2013-12-04 05:02:00,
2013-12-04 00:03:00,34.3,34.3,29.89,NE,45,0.0,0.0,100,0.00,OVC,,0.00,WeatherDisplay:10.37,2013-12-04 05:03:00,
2013-12-04 00:04:00,34.3,34.3,29.89,NE,45,0.0,0.0,100,0.00,OVC,,0.00,WeatherDisplay:10.37,2013-12-04 05:04:00,
2013-12-04 00:07:00,34.3,34.3,29.89,NE,45,0.0,0.0,100,0.00,OVC,,0.00,WeatherDisplay:10.37,2013-12-04 05:07:00,
2013-12-04 00:08:00,34.3,34.3,29.89,NE,45,1.0,3.6,100,0.00,OVC,,0.00,WeatherDisplay:10.37,2013-12-04 05:08:00,
2013-12-04 00:13:00,34.3,34.3,29.89,NE,45,0.0,0.0,100,0.00,OVC,,0.00,WeatherDisplay:10.37,2013-12-04 05:13:00,
2013-12-04 00:18:00,34.0,34.0,29.88,NE,45,2.7,2.7,100,0.00,OVC,,0.00,WeatherDisplay:10.37,2013-12-04 05:18:00,
2013-12-04 00:23:00,33.8,33.8,29.88,NE,45,2.4,2.7,100,0.00,OVC,,0.00,WeatherDisplay:10.37,2013-12-04 05:23:00,
2013-12-04 00:28:00,33.6,33.6,29.88,NE,45,0.0,0.0,100,0.00,OVC,,0.00,WeatherDisplay:10.37,2013-12-04 05:28:00,
2013-12-04 00:33:00,33.6,33.6,29.88,NE,45,0.0,0.0,100,0.00,OVC,,0.00,WeatherDisplay:10.37,2013-12-04 05:33:00,
2013-12-04 00:38:00,33.3,33.3,29.88,NE,45,0.0,0.0,100,0.00,OVC,,0.00,WeatherDisplay:10.37,2013-12-04 05:38:00,
2013-12-04 00:43:00,33.3,33.3,29.88,NE,45,0.0,0.0,100,0.00,OVC,,0.00,WeatherDisplay:10.37,2013-12-04 05:43:00,
2013-12-04 00:48:00,33.1,33.1,29.88,NE,45,0.0,0.0,100,0.00,OVC,,0.00,WeatherDisplay:10.37,2013-12-04 05:48:00,
2013-12-04 00:53:00,32.9,32.9,29.88,NE,45,0.0,0.0,100,0.00,OVC,,0.00,WeatherDisplay:10.37,2013-12-04 05:53:00,
2013-12-04 00:58:00,32.9,32.9,29.88,NE,45,0.0,0.0,100,0.00,OVC,,0.00,WeatherDisplay:10.37,2013-12-04 05:58:00,
2013-12-04 01:03:00,32.9,32.9,29.88,NE,45,0.0,0.0,100,0.00,OVC,,0.00,WeatherDisplay:10.37,2013-12-04 06:03:00,
2013-12-04 01:08:00,32.9,32.9,29.88,NE,45,0.0,0.0,100,0.00,OVC,,0.00,WeatherDisplay:10.37,2013-12-04 06:08:00,
2013-12-04 01:13:00,33.3,33.3,29.88,NE,45,2.0,2.7,100,0.00,OVC,,0.00,WeatherDisplay:10.37,2013-12-04 06:13:00,
2013-12-04 01:18:00,33.3,33.3,29.89,NE,45,0.0,2.3,100,0.00,OVC,,0.00,WeatherDisplay:10.37,2013-12-04 06:18:00,
2013-12-04 01:23:00,33.3,33.3,29.89,NE,45,0.0,0.0,100,0.00,OVC,,0.00,WeatherDisplay:10.37,2013-12-04 06:23:00,
2013-12-04 01:28:00,33.4,33.4,29.89,NE,45,0.0,0.0,100,0.00,OVC,,0.00,WeatherDisplay:10.37,2013-12-04 06:28:00,
2013-12-04 01:33:00,33.6,33.6,29.89,NE,45,0.0,0.0,100,0.00,OVC,,0.00,WeatherDisplay:10.37,2013-12-04 06:33:00,
2013-12-04 01:38:00,33.6,33.6,29.89,NE,45,0.0,0.0,100,0.00,OVC,,0.00,WeatherDisplay:10.37,2013-12-04 06:38:00,
2013-12-04 01:43:00,33.6,33.6,29.91,NE,45,2.2,2.7,100,0.00,OVC,,0.00,WeatherDisplay:10.37,2013-12-04 06:43:00,
2013-12-04 01:48:00,33.8,33.8,29.91,NE,45,3.4,3.6,100,0.00,OVC,,0.00,WeatherDisplay:10.37,2013-12-04 06:48:00,
2013-12-04 01:53:00,34.0,34.0,29.91,NE,45,0.0,0.0,100,0.00,OVC,,0.00,WeatherDisplay:10.37,2013-12-04 06:53:00,
2013-12-04 01:58:00,34.2,34.2,29.91,NE,45,0.0,0.0,100,0.00,OVC,,0.00,WeatherDisplay:10.37,2013-12-04 06:58:00,
2013-12-04 02:03:00,34.2,34.2,29.91,NE,45,0.0,0.0,100,0.00,OVC,,0.00,WeatherDisplay:10.37,2013-12-04 07:03:00,
2013-12-04 02:08:00,34.2,34.2,29.91,NE,45,0.0,0.0,100,0.00,OVC,,0.00,WeatherDisplay:10.37,2013-12-04 07:08:00,
2013-12-04 02:13:00,34.2,34.2,29.91,NE,45,0.0,0.0,100,0.00,OVC,,0.00,WeatherDisplay:10.37,2013-12-04 07:13:00,
2013-12-04 02:18:00,34.2,34.2,29.92,NE,45,0.0,0.0,100,0.00,OVC,,0.00,WeatherDisplay:10.37,2013-12-04 07:18:00,
2013-12-04 02:23:00,34.5,34.5,29.92,NE,45,0.0,0.0,100,0.00,OVC,,0.00,WeatherDisplay:10.37,2013-12-04 07:23:00,
2013-12-04 02:28:00,34.5,34.5,29.91,NE,45,0.0,0.0,100,0.00,OVC,,0.00,WeatherDisplay:10.37,2013-12-04 07:28:00,
2013-12-04 02:33:00,34.5,34.5,29.91,NE,45,0.0,0.0,100,0.00,OVC,,0.00,WeatherDisplay:10.37,2013-12-04 07:33:00,
2013-12-04 02:38:00,34.5,34.5,29.91,NE,45,0.0,0.0,100,0.00,OVC,,0.00,WeatherDisplay:10.37,2013-12-04 07:38:00,
2013-12-04 02:43:00,34.3,34.3,29.91,NE,45,0.0,0.0,100,0.00,OVC,,0.00,WeatherDisplay:10.37,2013-12-04 07:43:00,
2013-12-04 02:48:00,34.3,34.3,29.91,NE,45,0.0,0.0,100,0.00,OVC,,0.00,WeatherDisplay:10.37,2013-12-04 07:48:00,
2013-12-04 02:53:00,34.3,34.3,29.92,NE,45,0.0,0.0,100,0.00,OVC,,0.00,WeatherDisplay:10.37,2013-12-04 07:53:00,
2013-12-04 02:58:00,34.3,34.3,29.92,NE,45,0.0,0.0,100,0.00,OVC,,0.00,WeatherDisplay:10.37,2013-12-04 07:58:00,
2013-12-04 03:03:00,34.5,34.5,29.92,NE,45,0.0,0.0,100,0.00,OVC,,0.00,WeatherDisplay:10.37,2013-12-04 08:03:00,
2013-12-04 03:08:00,34.5,34.5,29.92,NE,45,0.0,0.0,100,0.00,OVC,,0.00,WeatherDisplay:10.37,2013-12-04 08:08:00,
2013-12-04 03:13:00,34.2,34.2,29.92,NE,45,0.0,0.0,100,0.00,OVC,,0.00,WeatherDisplay:10.37,2013-12-04 08:13:00,
2013-12-04 03:18:00,34.2,34.2,29.92,NE,45,0.0,0.0,100,0.00,OVC,,0.00,WeatherDisplay:10.37,2013-12-04 08:18:00,
2013-12-04 03:23:00,34.0,34.0,29.92,NE,45,0.0,0.0,100,0.00,OVC,,0.00,WeatherDisplay:10.37,2013-12-04 08:23:00,
2013-12-04 03:28:00,33.8,33.8,29.91,NE,45,0.0,0.0,100,0.00,OVC,,0.00,WeatherDisplay:10.37,2013-12-04 08:28:00,
2013-12-04 03:33:00,33.6,33.6,29.91,NE,45,0.0,0.0,100,0.00,OVC,,0.00,WeatherDisplay:10.37,2013-12-04 08:33:00,
2013-12-04 03:38:00,33.4,33.4,29.91,NE,45,0.0,0.0,100,0.00,OVC,,0.00,WeatherDisplay:10.37,2013-12-04 08:38:00,
2013-12-04 03:43:00,33.4,33.4,29.91,NE,45,0.0,0.0,100,0.00,OVC,,0.00,WeatherDisplay:10.37,2013-12-04 08:43:00,
2013-12-04 03:48:00,33.3,33.3,29.91,NE,45,0.0,0.0,100,0.00,OVC,,0.00,WeatherDisplay:10.37,2013-12-04 08:48:00,
2013-12-04 03:53:00,33.3,33.3,29.90,NE,45,0.0,0.0,100,0.00,OVC,,0.00,WeatherDisplay:10.37,2013-12-04 08:53:00,
2013-12-04 03:58:00,33.1,33.1,29.90,NE,45,0.0,0.0,100,0.00,OVC,,0.00,WeatherDisplay:10.37,2013-12-04 08:58:00,
2013-12-04 04:03:00,33.1,33.1,29.90,NE,45,0.0,0.0,100,0.00,OVC,,0.00,WeatherDisplay:10.37,2013-12-04 09:03:00,
2013-12-04 04:08:00,33.1,33.1,29.90,NE,45,0.0,0.0,100,0.00,OVC,,0.00,WeatherDisplay:10.37,2013-12-04 09:08:00,
2013-12-04 04:13:00,32.7,32.7,29.90,NE,45,0.0,0.0,100,0.00,OVC,,0.00,WeatherDisplay:10.37,2013-12-04 09:13:00,
2013-12-04 04:18:00,32.7,32.7,29.90,NE,45,0.0,0.0,100,0.00,OVC,,0.00,WeatherDisplay:10.37,2013-12-04 09:18:00,
2013-12-04 04:23:00,32.2,32.2,29.90,NE,45,0.0,0.0,100,0.00,OVC,,0.00,WeatherDisplay:10.37,2013-12-04 09:23:00,
2013-12-04 04:28:00,32.2,32.2,29.90,NE,45,0.0,0.0,100,0.00,OVC,,0.00,WeatherDisplay:10.37,2013-12-04 09:28:00,
2013-12-04 04:33:00,31.8,31.8,29.90,NE,45,0.0,0.0,100,0.00,OVC,,0.00,WeatherDisplay:10.37,2013-12-04 09:33:00,
2013-12-04 04:38:00,31.8,31.8,29.90,NE,45,0.0,0.0,100,0.00,OVC,,0.00,WeatherDisplay:10.37,2013-12-04 09:38:00,
2013-12-04 04:43:00,31.6,31.6,29.90,NE,45,0.0,0.0,100,0.00,OVC,,0.00,WeatherDisplay:10.37,2013-12-04 09:43:00,
2013-12-04 04:48:00,31.3,31.3,29.90,NE,45,0.0,0.0,100,0.00,OVC,,0.00,WeatherDisplay:10.37,2013-12-04 09:48:00,
2013-12-04 04:53:00,31.3,31.3,29.90,NE,45,0.0,0.0,100,0.00,OVC,,0.00,WeatherDisplay:10.37,2013-12-04 09:53:00,
2013-12-04 04:58:00,31.1,31.1,29.91,NE,45,0.0,0.0,100,0.00,OVC,,0.00,WeatherDisplay:10.37,2013-12-04 09:58:00,
2013-12-04 05:03:00,31.1,31.1,29.91,NE,45,0.0,0.0,100,0.00,OVC,,0.00,WeatherDisplay:10.37,2013-12-04 10:03:00,
2013-12-04 05:08:00,31.3,31.3,29.90,NE,45,0.0,0.0,100,0.00,BKN,,0.00,WeatherDisplay:10.37,2013-12-04 10:08:00,
2013-12-04 05:13:00,31.5,31.5,29.90,NE,45,0.0,0.0,100,0.00,BKN,,0.00,WeatherDisplay:10.37,2013-12-04 10:13:00,
2013-12-04 05:18:00,31.6,31.6,29.90,NE,45,0.0,0.0,100,0.00,BKN,,0.00,WeatherDisplay:10.37,2013-12-04 10:18:00,
2013-12-04 05:23:00,31.8,31.8,29.90,NE,45,0.0,0.0,100,0.00,BKN,,0.00,WeatherDisplay:10.37,2013-12-04 10:23:00,
2013-12-04 05:28:00,32.0,32.0,29.90,NE,45,0.0,0.0,100,0.00,BKN,,0.00,WeatherDisplay:10.37,2013-12-04 10:28:00,
2013-12-04 05:33:00,32.0,32.0,29.90,NE,45,0.0,0.0,100,0.00,BKN,,0.00,WeatherDisplay:10.37,2013-12-04 10:33:00,
2013-12-04 05:38:00,32.0,32.0,29.90,NE,45,0.0,0.0,100,0.00,BKN,,0.00,WeatherDisplay:10.37,2013-12-04 10:38:00,
2013-12-04 05:43:00,32.0,32.0,29.90,NE,45,0.0,0.0,100,0.00,BKN,,0.00,WeatherDisplay:10.37,2013-12-04 10:43:00,
2013-12-04 05:48:00,31.8,31.8,29.90,NE,45,0.0,0.0,100,0.00,BKN,,0.00,WeatherDisplay:10.37,2013-12-04 10:48:00,
2013-12-04 05:53:00,31.8,31.8,29.91,NE,45,0.0,0.0,100,0.00,BKN,,0.00,WeatherDisplay:10.37,2013-12-04 10:53:00,
2013-12-04 05:58:00,31.5,31.5,29.91,NE,45,0.0,0.0,100,0.00,BKN,,0.00,WeatherDisplay:10.37,2013-12-04 10:58:00,
2013-12-04 06:03:00,31.3,31.3,29.91,NE,45,0.0,0.0,100,0.00,BKN,,0.00,WeatherDisplay:10.37,2013-12-04 11:03:00,
2013-12-04 06:08:00,31.3,31.3,29.91,NE,45,0.0,0.0,100,0.00,BKN,,0.00,WeatherDisplay:10.37,2013-12-04 11:08:00,
2013-12-04 06:13:00,31.3,31.3,29.91,NE,45,0.0,0.0,100,0.00,BKN,,0.00,WeatherDisplay:10.37,2013-12-04 11:13:00,
2013-12-04 06:18:00,31.3,31.3,29.92,NE,45,0.0,0.0,100,0.00,BKN,,0.00,WeatherDisplay:10.37,2013-12-04 11:18:00,
2013-12-04 06:23:00,31.3,31.3,29.92,NE,45,0.0,0.0,100,0.00,BKN,,0.00,WeatherDisplay:10.37,2013-12-04 11:23:00,
2013-12-04 06:28:00,30.9,30.9,29.91,NE,45,0.0,0.0,100,0.00,BKN,,0.00,WeatherDisplay:10.37,2013-12-04 11:28:00,
2013-12-04 06:33:00,30.9,30.9,29.91,NE,45,0.0,0.0,100,0.00,BKN,,0.00,WeatherDisplay:10.37,2013-12-04 11:33:00,
2013-12-04 06:38:00,30.9,30.9,29.91,NE,45,0.0,0.0,100,0.00,BKN,,0.00,WeatherDisplay:10.37,2013-12-04 11:38:00,
2013-12-04 06:43:00,30.9,30.9,29.92,NE,45,0.0,0.0,100,0.00,BKN,,0.00,WeatherDisplay:10.37,2013-12-04 11:43:00,
2013-12-04 06:48:00,30.9,30.9,29.92,NE,45,0.0,0.0,100,0.00,BKN,,0.00,WeatherDisplay:10.37,2013-12-04 11:48:00,
2013-12-04 06:53:00,30.7,30.7,29.93,NE,45,0.0,0.0,100,0.00,BKN,,0.00,WeatherDisplay:10.37,2013-12-04 11:53:00,
2013-12-04 06:58:00,30.6,30.6,29.93,NE,45,0.0,0.0,100,0.00,BKN,,0.00,WeatherDisplay:10.37,2013-12-04 11:58:00,
2013-12-04 07:03:00,30.4,30.4,29.93,NE,45,0.0,0.0,100,0.00,BKN,,0.00,WeatherDisplay:10.37,2013-12-04 12:03:00,
2013-12-04 07:08:00,30.2,30.2,29.94,NE,45,0.0,0.0,100,0.00,BKN,,0.00,WeatherDisplay:10.37,2013-12-04 12:08:00,
2013-12-04 07:13:00,30.2,30.2,29.94,NE,45,0.0,0.0,100,0.00,BKN,,0.00,WeatherDisplay:10.37,2013-12-04 12:13:00,
2013-12-04 07:18:00,30.2,30.2,29.95,NE,45,0.0,0.0,100,0.00,BKN,,0.00,WeatherDisplay:10.37,2013-12-04 12:18:00,
2013-12-04 07:23:00,30.2,30.2,29.95,NE,45,0.0,0.0,100,0.00,BKN,,0.00,WeatherDisplay:10.37,2013-12-04 12:23:00,
2013-12-04 07:28:00,30.0,30.0,29.95,NE,45,0.0,0.0,100,0.00,BKN,,0.00,WeatherDisplay:10.37,2013-12-04 12:28:00,
2013-12-04 07:33:00,30.0,30.0,29.95,NE,45,0.0,0.0,100,0.00,BKN,,0.00,WeatherDisplay:10.37,2013-12-04 12:33:00,
2013-12-04 07:38:00,30.0,30.0,29.95,NE,45,0.0,0.0,100,0.00,BKN,,0.00,WeatherDisplay:10.37,2013-12-04 12:38:00,
2013-12-04 07:43:00,30.2,30.2,29.95,NE,45,0.0,0.0,100,0.00,BKN,,0.00,WeatherDisplay:10.37,2013-12-04 12:43:00,
2013-12-04 07:48:00,30.2,30.2,29.95,NE,45,0.0,0.0,100,0.00,BKN,,0.00,WeatherDisplay:10.37,2013-12-04 12:48:00,
2013-12-04 07:53:00,30.4,30.4,29.95,NE,45,0.0,0.0,100,0.00,BKN,,0.00,WeatherDisplay:10.37,2013-12-04 12:53:00,
2013-12-04 07:58:00,30.6,30.6,29.95,NE,45,0.0,0.0,100,0.00,BKN,,0.00,WeatherDisplay:10.37,2013-12-04 12:58:00,
2013-12-04 08:03:00,30.6,30.6,29.96,NE,45,0.0,0.0,100,0.00,BKN,,0.00,WeatherDisplay:10.37,2013-12-04 13:03:00,
2013-12-04 08:08:00,30.9,30.9,29.96,NE,45,0.0,0.0,100,0.00,BKN,,0.00,WeatherDisplay:10.37,2013-12-04 13:08:00,
2013-12-04 08:13:00,31.1,31.1,29.96,NE,45,0.0,0.0,100,0.00,OVC,,0.00,WeatherDisplay:10.37,2013-12-04 13:13:00,
2013-12-04 08:18:00,31.6,31.6,29.96,NE,45,0.0,0.0,100,0.00,OVC,,0.00,WeatherDisplay:10.37,2013-12-04 13:18:00,
2013-12-04 08:23:00,32.2,32.2,29.96,NE,45,0.0,0.0,100,0.00,OVC,,0.00,WeatherDisplay:10.37,2013-12-04 13:23:00,
2013-12-04 08:28:00,32.7,32.7,29.97,NE,45,0.0,0.0,100,0.00,OVC,,0.00,WeatherDisplay:10.37,2013-12-04 13:28:00,
2013-12-04 08:33:00,33.6,33.6,29.97,NE,45,0.0,0.0,100,0.00,OVC,,0.00,WeatherDisplay:10.37,2013-12-04 13:33:00,
2013-12-04 08:38:00,34.5,34.5,29.97,NE,45,0.0,0.0,100,0.00,OVC,,0.00,WeatherDisplay:10.37,2013-12-04 13:38:00,
2013-12-04 08:43:00,35.1,35.1,29.97,NE,45,0.0,0.0,100,0.00,OVC,,0.00,WeatherDisplay:10.37,2013-12-04 13:43:00,
2013-12-04 08:48:00,35.2,35.2,29.97,NE,45,0.0,0.0,100,0.00,OVC,,0.00,WeatherDisplay:10.37,2013-12-04 13:48:00,
2013-12-04 08:53:00,35.8,35.8,29.98,NE,45,0.0,0.0,100,0.00,OVC,,0.00,WeatherDisplay:10.37,2013-12-04 13:53:00,
2013-12-04 08:58:00,36.5,36.5,29.98,NE,45,0.0,0.0,100,0.00,OVC,,0.00,WeatherDisplay:10.37,2013-12-04 13:58:00,
2013-12-04 09:03:00,37.0,37.0,29.98,NE,45,0.0,0.0,100,0.00,OVC,,0.00,WeatherDisplay:10.37,2013-12-04 14:03:00,
2013-12-04 09:08:00,37.4,37.4,29.98,NE,45,0.0,0.0,100,0.00,OVC,,0.00,WeatherDisplay:10.37,2013-12-04 14:08:00,
2013-12-04 09:13:00,37.9,37.9,29.98,NE,45,0.0,0.0,100,0.00,OVC,,0.00,WeatherDisplay:10.37,2013-12-04 14:13:00,
2013-12-04 09:18:00,38.5,38.5,29.97,NE,45,0.0,0.0,100,0.00,OVC,,0.00,WeatherDisplay:10.37,2013-12-04 14:18:00,
2013-12-04 09:23:00,39.0,39.0,29.97,NE,45,0.0,0.0,100,0.00,OVC,,0.00,WeatherDisplay:10.37,2013-12-04 14:23:00,
2013-12-04 09:28:00,39.7,39.7,29.97,NE,45,0.0,0.0,100,0.00,OVC,,0.00,WeatherDisplay:10.37,2013-12-04 14:28:00,
2013-12-04 09:33:00,40.3,40.3,29.97,NE,45,0.0,0.0,100,0.00,OVC,,0.00,WeatherDisplay:10.37,2013-12-04 14:33:00,
2013-12-04 09:38:00,40.8,40.8,29.98,NE,45,0.0,0.0,100,0.00,OVC,,0.00,WeatherDisplay:10.37,2013-12-04 14:38:00,
2013-12-04 09:43:00,41.2,41.2,29.98,NE,45,0.0,0.0,100,0.00,OVC,,0.00,WeatherDisplay:10.37,2013-12-04 14:43:00,
2013-12-04 09:48:00,41.4,41.4,29.98,NE,45,2.5,2.7,100,0.00,OVC,,0.00,WeatherDisplay:10.37,2013-12-04 14:48:00,
2013-12-04 09:53:00,41.7,41.7,29.98,NE,45,0.0,0.0,100,0.00,OVC,,0.00,WeatherDisplay:10.37,2013-12-04 14:53:00,
2013-12-04 09:58:00,42.4,42.1,29.98,NE,45,0.0,0.0,99,0.00,OVC,,0.00,WeatherDisplay:10.37,2013-12-04 14:58:00,
2013-12-04 10:03:00,42.8,42.0,29.98,NE,45,0.5,2.7,97,0.00,OVC,,0.00,WeatherDisplay:10.37,2013-12-04 15:03:00,
2013-12-04 10:08:00,43.9,41.2,29.98,NE,45,0.0,2.3,90,0.00,OVC,,0.00,WeatherDisplay:10.37,2013-12-04 15:08:00,
2013-12-04 10:13:00,44.6,41.3,29.98,NE,45,0.0,0.0,88,0.00,OVC,,0.00,WeatherDisplay:10.37,2013-12-04 15:13:00,
2013-12-04 10:18:00,45.0,41.4,29.99,NE,45,0.0,2.3,87,0.00,OVC,,0.00,WeatherDisplay:10.37,2013-12-04 15:18:00,
2013-12-04 10:23:00,45.3,41.4,29.99,NE,45,1.9,2.3,86,0.00,OVC,,0.00,WeatherDisplay:10.37,2013-12-04 15:23:00,
2013-12-04 10:28:00,45.9,41.6,29.99,NE,45,0.0,0.0,85,0.00,OVC,,0.00,WeatherDisplay:10.37,2013-12-04 15:28:00,
2013-12-04 10:33:00,46.6,42.0,29.99,NE,45,0.0,0.0,84,0.00,OVC,,0.00,WeatherDisplay:10.37,2013-12-04 15:33:00,
2013-12-04 10:38:00,46.9,42.0,29.99,NE,45,0.0,0.0,83,0.00,OVC,,0.00,WeatherDisplay:10.37,2013-12-04 15:38:00,
2013-12-04 10:43:00,47.5,42.3,29.98,NE,45,0.0,2.3,82,0.00,OVC,,0.00,WeatherDisplay:10.37,2013-12-04 15:43:00,
2013-12-04 10:48:00,48.4,43.2,29.98,NE,45,2.7,2.7,82,0.00,OVC,,0.00,WeatherDisplay:10.37,2013-12-04 15:48:00,
2013-12-04 10:53:00,48.9,42.7,29.98,NE,45,0.0,0.0,79,0.00,OVC,,0.00,WeatherDisplay:10.37,2013-12-04 15:53:00,
2013-12-04 10:58:00,49.6,43.0,29.98,NE,45,0.0,0.0,78,0.00,OVC,,0.00,WeatherDisplay:10.37,2013-12-04 15:58:00,
2013-12-04 11:03:00,50.4,43.5,29.97,NE,45,0.0,0.0,77,0.00,OVC,,0.00,WeatherDisplay:10.37,2013-12-04 16:03:00,
2013-12-04 11:08:00,51.3,43.6,29.97,NE,45,0.0,0.0,75,0.00,OVC,,0.00,WeatherDisplay:10.37,2013-12-04 16:08:00,
2013-12-04 11:13:00,51.6,43.9,29.97,NE,45,1.0,3.5,75,0.00,OVC,,0.00,WeatherDisplay:10.37,2013-12-04 16:13:00,
2013-12-04 11:18:00,52.2,44.2,29.97,NE,45,0.6,2.3,74,0.00,OVC,,0.00,WeatherDisplay:10.37,2013-12-04 16:18:00,
2013-12-04 11:23:00,52.0,44.0,29.97,NE,45,0.0,0.0,74,0.00,OVC,,0.00,WeatherDisplay:10.37,2013-12-04 16:23:00,
2013-12-04 11:28:00,52.2,44.5,29.97,NE,45,2.8,3.6,75,0.00,OVC,,0.00,WeatherDisplay:10.37,2013-12-04 16:28:00,
2013-12-04 11:33:00,52.9,45.2,29.97,NE,45,2.3,3.5,75,0.00,OVC,,0.00,WeatherDisplay:10.37,2013-12-04 16:33:00,
2013-12-04 11:38:00,54.0,45.2,29.97,NE,45,0.0,0.0,72,0.00,OVC,,0.00,WeatherDisplay:10.37,2013-12-04 16:38:00,
2013-12-04 11:43:00,54.3,45.5,29.96,NE,45,0.0,0.0,72,0.00,OVC,,0.00,WeatherDisplay:10.37,2013-12-04 16:43:00,
2013-12-04 11:48:00,55.0,46.1,29.96,NE,45,2.7,3.6,72,0.00,OVC,,0.00,WeatherDisplay:10.37,2013-12-04 16:48:00,
2013-12-04 11:53:00,55.4,46.2,29.95,NE,45,0.0,0.0,71,0.00,OVC,,0.00,WeatherDisplay:10.37,2013-12-04 16:53:00,
2013-12-04 11:58:00,55.6,46.0,29.95,NE,45,0.0,0.0,70,0.00,OVC,,0.00,WeatherDisplay:10.37,2013-12-04 16:58:00,
2013-12-04 12:03:00,56.3,46.6,29.95,NE,45,0.0,0.0,70,0.00,OVC,,0.00,WeatherDisplay:10.37,2013-12-04 17:03:00,
2013-12-04 12:08:00,55.9,46.3,29.95,NE,45,0.0,0.0,70,0.00,OVC,,0.00,WeatherDisplay:10.37,2013-12-04 17:08:00,
2013-12-04 12:13:00,56.7,47.0,29.95,NE,45,0.0,0.0,70,0.00,OVC,,0.00,WeatherDisplay:10.37,2013-12-04 17:13:00,
2013-12-04 12:18:00,58.3,47.0,29.94,NE,45,0.0,0.0,66,0.00,OVC,,0.00,WeatherDisplay:10.37,2013-12-04 17:18:00,
2013-12-04 12:23:00,58.1,47.2,29.94,NE,45,1.2,3.5,67,0.00,OVC,,0.00,WeatherDisplay:10.37,2013-12-04 17:23:00,
2013-12-04 12:28:00,59.2,47.8,29.93,NE,45,2.6,3.6,66,0.00,OVC,,0.00,WeatherDisplay:10.37,2013-12-04 17:28:00,
2013-12-04 12:33:00,59.7,48.3,29.93,NE,45,0.0,0.0,66,0.00,OVC,,0.00,WeatherDisplay:10.37,2013-12-04 17:33:00,
2013-12-04 12:38:00,60.1,48.7,29.93,NE,45,3.3,4.4,66,0.00,OVC,,0.00,WeatherDisplay:10.37,2013-12-04 17:38:00,
2013-12-04 12:43:00,59.9,48.5,29.92,NE,45,1.3,3.6,66,0.00,OVC,,0.00,WeatherDisplay:10.37,2013-12-04 17:43:00,
2013-12-04 12:48:00,60.6,49.2,29.92,NE,45,2.0,2.7,66,0.00,OVC,,0.00,WeatherDisplay:10.37,2013-12-04 17:48:00,
2013-12-04 12:53:00,60.6,49.2,29.92,NE,45,2.7,2.7,66,0.00,OVC,,0.00,WeatherDisplay:10.37,2013-12-04 17:53:00,
2013-12-04 12:58:00,61.3,49.4,29.92,NE,45,0.0,3.5,65,0.00,OVC,,0.00,WeatherDisplay:10.37,2013-12-04 17:58:00,
2013-12-04 13:03:00,61.2,48.9,29.91,NE,45,0.0,0.0,64,0.00,OVC,,0.00,WeatherDisplay:10.37,2013-12-04 18:03:00,
2013-12-04 13:08:00,60.3,48.9,29.91,NE,45,1.7,3.5,66,0.00,OVC,,0.00,WeatherDisplay:10.37,2013-12-04 18:08:00,
2013-12-04 13:13:00,60.8,48.5,29.91,NE,45,0.0,0.0,64,0.00,OVC,,0.00,WeatherDisplay:10.37,2013-12-04 18:13:00,
2013-12-04 13:18:00,60.6,48.4,29.91,SSE,158,0.0,5.8,64,0.00,OVC,,0.00,WeatherDisplay:10.37,2013-12-04 18:18:00,
2013-12-04 13:23:00,61.3,49.0,29.91,SSE,158,3.0,3.6,64,0.00,OVC,,0.00,WeatherDisplay:10.37,2013-12-04 18:23:00,
2013-12-04 13:28:00,61.0,48.7,29.91,SSE,158,4.4,4.6,64,0.00,OVC,,0.00,WeatherDisplay:10.37,2013-12-04 18:28:00,
2013-12-04 13:33:00,61.3,49.0,29.91,SSE,158,1.4,3.5,64,0.00,OVC,,0.00,WeatherDisplay:10.37,2013-12-04 18:33:00,
2013-12-04 13:38:00,61.3,49.0,29.91,East,90,2.9,6.1,64,0.00,OVC,,0.00,WeatherDisplay:10.37,2013-12-04 18:38:00,
2013-12-04 13:43:00,61.7,49.4,29.89,East,90,3.5,6.1,64,0.00,OVC,,0.00,WeatherDisplay:10.37,2013-12-04 18:43:00,
2013-12-04 13:48:00,62.1,49.4,29.89,East,90,2.3,4.6,63,0.00,OVC,,0.00,WeatherDisplay:10.37,2013-12-04 18:48:00,
2013-12-04 13:53:00,62.4,49.2,29.89,SSE,158,3.5,8.1,62,0.00,OVC,,0.00,WeatherDisplay:10.37,2013-12-04 18:53:00,
2013-12-04 13:58:00,61.9,49.2,29.89,South,180,3.0,5.8,63,0.00,OVC,,0.00,WeatherDisplay:10.37,2013-12-04 18:58:00,
2013-12-04 14:03:00,61.9,49.2,29.88,South,180,3.2,3.6,63,0.00,OVC,,0.00,WeatherDisplay:10.37,2013-12-04 19:03:00,
2013-12-04 14:08:00,61.5,48.8,29.88,ESE,112,2.9,3.6,63,0.00,OVC,,0.00,WeatherDisplay:10.37,2013-12-04 19:08:00,
2013-12-04 14:13:00,61.9,48.7,29.88,SE,135,4.3,5.8,62,0.00,OVC,,0.00,WeatherDisplay:10.37,2013-12-04 19:13:00,
2013-12-04 14:18:00,61.7,49.0,29.87,SSW,202,3.7,4.6,63,0.00,OVC,,0.00,WeatherDisplay:10.37,2013-12-04 19:18:00,
2013-12-04 14:23:00,61.9,49.2,29.87,SSW,202,0.0,3.5,63,0.00,OVC,,0.00,WeatherDisplay:10.37,2013-12-04 19:23:00,
2013-12-04 14:28:00,62.2,49.0,29.88,South,180,2.9,5.3,62,0.00,OVC,,0.00,WeatherDisplay:10.37,2013-12-04 19:28:00,
2013-12-04 14:33:00,62.4,49.2,29.88,SSW,202,6.5,8.1,62,0.00,OVC,,0.00,WeatherDisplay:10.37,2013-12-04 19:33:00,
2013-12-04 14:38:00,62.4,48.8,29.88,South,180,3.8,5.8,61,0.00,OVC,,0.00,WeatherDisplay:10.37,2013-12-04 19:38:00,
2013-12-04 14:43:00,62.6,49.0,29.87,South,180,1.0,3.6,61,0.00,OVC,,0.00,WeatherDisplay:10.37,2013-12-04 19:43:00,
2013-12-04 14:48:00,62.4,48.8,29.87,SSE,158,4.3,9.2,61,0.00,OVC,,0.00,WeatherDisplay:10.37,2013-12-04 19:48:00,
2013-12-04 14:53:00,62.4,48.8,29.87,ESE,112,2.1,5.8,61,0.00,OVC,,0.00,WeatherDisplay:10.37,2013-12-04 19:53:00,
2013-12-04 14:58:00,62.4,48.8,29.87,South,180,4.3,6.9,61,0.00,OVC,,0.00,WeatherDisplay:10.37,2013-12-04 19:58:00,
2013-12-04 15:03:00,62.1,48.5,29.87,SSW,202,6.7,7.0,61,0.00,OVC,,0.00,WeatherDisplay:10.37,2013-12-04 20:03:00,
2013-12-04 15:08:00,62.4,49.2,29.87,SW,225,3.8,4.4,62,0.00,OVC,,0.00,WeatherDisplay:10.37,2013-12-04 20:08:00,
2013-12-04 15:13:00,61.9,48.7,29.87,SSW,202,3.3,5.8,62,0.00,OVC,,0.00,WeatherDisplay:10.37,2013-12-04 20:13:00,
2013-12-04 15:18:00,61.9,48.7,29.86,South,180,4.1,5.3,62,0.00,OVC,,0.00,WeatherDisplay:10.37,2013-12-04 20:18:00,
2013-12-04 15:23:00,61.7,48.5,29.86,South,180,2.1,3.6,62,0.00,OVC,,0.00,WeatherDisplay:10.37,2013-12-04 20:23:00,
2013-12-04 15:28:00,62.2,49.0,29.87,South,180,0.6,2.7,62,0.00,OVC,,0.00,WeatherDisplay:10.37,2013-12-04 20:28:00,
2013-12-04 15:33:00,62.2,49.0,29.87,South,180,0.0,2.3,62,0.00,OVC,,0.00,WeatherDisplay:10.37,2013-12-04 20:33:00,
2013-12-04 15:38:00,62.1,48.9,29.87,South,180,0.0,2.3,62,0.00,OVC,,0.00,WeatherDisplay:10.37,2013-12-04 20:38:00,
2013-12-04 15:43:00,61.9,48.7,29.87,South,180,0.3,2.3,62,0.00,OVC,,0.00,WeatherDisplay:10.37,2013-12-04 20:43:00,
2013-12-04 15:48:00,61.3,48.6,29.87,South,180,0.0,0.0,63,0.00,OVC,,0.00,WeatherDisplay:10.37,2013-12-04 20:48:00,
2013-12-04 15:53:00,61.2,48.5,29.87,South,180,0.0,0.0,63,0.00,OVC,,0.00,WeatherDisplay:10.37,2013-12-04 20:53:00,
2013-12-04 15:58:00,61.3,49.4,29.87,South,180,0.2,2.3,65,0.00,OVC,,0.00,WeatherDisplay:10.37,2013-12-04 20:58:00,
2013-12-04 16:03:00,61.0,49.1,29.88,South,180,0.0,0.0,65,0.00,OVC,,0.00,WeatherDisplay:10.37,2013-12-04 21:03:00,
2013-12-04 16:08:00,60.4,49.8,29.88,South,180,0.0,0.0,68,0.00,OVC,,0.00,WeatherDisplay:10.37,2013-12-04 21:08:00,
2013-12-04 16:13:00,59.9,49.7,29.88,South,180,0.0,0.0,69,0.00,OVC,,0.00,WeatherDisplay:10.37,2013-12-04 21:13:00,
2013-12-04 16:18:00,59.0,49.2,29.88,South,180,0.0,0.0,70,0.00,OVC,,0.00,WeatherDisplay:10.37,2013-12-04 21:18:00,
2013-12-04 16:23:00,58.6,48.8,29.88,South,180,0.0,2.3,70,0.00,OVC,,0.00,WeatherDisplay:10.37,2013-12-04 21:23:00,
2013-12-04 16:28:00,58.5,48.4,29.88,East,90,4.4,9.2,69,0.00,OVC,,0.00,WeatherDisplay:10.37,2013-12-04 21:28:00,
2013-12-04 16:33:00,58.1,48.0,29.88,East,90,0.7,3.6,69,0.00,OVC,,0.00,WeatherDisplay:10.37,2013-12-04 21:33:00,
2013-12-04 16:38:00,58.3,47.8,29.87,South,180,2.9,5.8,68,0.00,OVC,,0.00,WeatherDisplay:10.37,2013-12-04 21:38:00,
2013-12-04 16:43:00,58.1,47.6,29.87,South,180,1.6,3.5,68,0.00,OVC,,0.00,WeatherDisplay:10.37,2013-12-04 21:43:00,
2013-12-04 16:48:00,57.7,47.6,29.87,South,180,2.6,2.7,69,0.00,OVC,,0.00,WeatherDisplay:10.37,2013-12-04 21:48:00,
2013-12-04 16:53:00,57.7,47.6,29.88,South,180,1.0,4.6,69,0.00,OVC,,0.00,WeatherDisplay:10.37,2013-12-04 21:53:00,
2013-12-04 16:58:00,57.4,47.3,29.88,South,180,0.5,2.7,69,0.00,OVC,,0.00,WeatherDisplay:10.37,2013-12-04 21:58:00,
2013-12-04 17:03:00,57.0,47.3,29.88,South,180,1.4,3.6,70,0.00,OVC,,0.00,WeatherDisplay:10.37,2013-12-04 22:03:00,
2013-12-04 17:08:00,57.7,47.6,29.88,SE,135,3.6,4.6,69,0.00,OVC,,0.00,WeatherDisplay:10.37,2013-12-04 22:08:00,
2013-12-04 17:13:00,57.7,47.6,29.88,SE,135,3.0,9.2,69,0.00,BKN,,0.00,WeatherDisplay:10.37,2013-12-04 22:13:00,
2013-12-04 17:18:00,57.7,47.6,29.89,SE,135,2.7,2.7,69,0.00,BKN,,0.00,WeatherDisplay:10.37,2013-12-04 22:18:00,
2013-12-04 17:23:00,56.5,47.2,29.89,SE,135,2.2,2.7,71,0.00,BKN,,0.00,WeatherDisplay:10.37,2013-12-04 22:23:00,
2013-12-04 17:28:00,56.1,46.8,29.88,SE,135,0.0,0.0,71,0.00,BKN,,0.00,WeatherDisplay:10.37,2013-12-04 22:28:00,
2013-12-04 17:33:00,55.4,46.5,29.88,SE,135,0.0,0.0,72,0.00,BKN,,0.00,WeatherDisplay:10.37,2013-12-04 22:33:00,
2013-12-04 17:38:00,54.7,46.6,29.88,SE,135,0.0,0.0,74,0.00,BKN,,0.00,WeatherDisplay:10.37,2013-12-04 22:38:00,
2013-12-04 17:43:00,54.1,46.7,29.88,SE,135,0.0,2.3,76,0.00,BKN,,0.00,WeatherDisplay:10.37,2013-12-04 22:43:00,
2013-12-04 17:48:00,53.4,46.4,29.88,SE,135,0.0,0.0,77,0.00,BKN,,0.00,WeatherDisplay:10.37,2013-12-04 22:48:00,
2013-12-04 17:53:00,52.7,46.0,29.89,SE,135,0.0,0.0,78,0.00,BKN,,0.00,WeatherDisplay:10.37,2013-12-04 22:53:00,
2013-12-04 17:58:00,52.3,45.6,29.89,SE,135,0.0,0.0,78,0.00,BKN,,0.00,WeatherDisplay:10.37,2013-12-04 22:58:00,
2013-12-04 18:03:00,51.8,45.5,29.88,SE,135,0.0,0.0,79,0.00,BKN,,0.00,WeatherDisplay:10.37,2013-12-04 23:03:00,
2013-12-04 18:08:00,51.3,45.7,29.88,SE,135,0.0,0.0,81,0.00,BKN,,0.00,WeatherDisplay:10.37,2013-12-04 23:08:00,
2013-12-04 18:13:00,50.5,45.2,29.88,SE,135,0.0,0.0,82,0.00,BKN,,0.00,WeatherDisplay:10.37,2013-12-04 23:13:00,
2013-12-04 18:18:00,50.2,44.9,29.88,SE,135,0.0,0.0,82,0.00,BKN,,0.00,WeatherDisplay:10.37,2013-12-04 23:18:00,
2013-12-04 18:23:00,49.8,44.8,29.88,SE,135,0.0,0.0,83,0.00,BKN,,0.00,WeatherDisplay:10.37,2013-12-04 23:23:00,
2013-12-04 18:28:00,49.5,44.9,29.88,SE,135,0.0,0.0,84,0.00,BKN,,0.00,WeatherDisplay:10.37,2013-12-04 23:28:00,
2013-12-04 18:33:00,49.1,44.8,29.88,SE,135,2.1,4.6,85,0.00,BKN,,0.00,WeatherDisplay:10.37,2013-12-04 23:33:00,
2013-12-04 18:38:00,49.6,45.0,29.88,SSW,202,2.8,4.6,84,0.00,BKN,,0.00,WeatherDisplay:10.37,2013-12-04 23:38:00,
2013-12-04 18:43:00,49.6,45.0,29.88,SSW,202,0.1,3.5,84,0.00,BKN,,0.00,WeatherDisplay:10.37,2013-12-04 23:43:00,
2013-12-04 18:48:00,52.2,46.2,29.88,SSE,158,6.3,10.4,80,0.00,BKN,,0.00,WeatherDisplay:10.37,2013-12-04 23:48:00,
2013-12-04 18:53:00,54.3,46.9,29.88,SSE,158,4.3,9.2,76,0.00,BKN,,0.00,WeatherDisplay:10.37,2013-12-04 23:53:00,
2013-12-04 18:58:00,55.6,47.1,29.88,South,180,5.1,8.1,73,0.00,BKN,,0.00,WeatherDisplay:10.37,2013-12-04 23:58:00,
2013-12-04 19:03:00,55.0,46.9,29.88,South,180,4.0,5.8,74,0.00,BKN,,0.00,WeatherDisplay:10.37,2013-12-05 00:03:00,
2013-12-04 19:08:00,55.6,47.1,29.88,East,90,7.1,8.7,73,0.00,BKN,,0.00,WeatherDisplay:10.37,2013-12-05 00:08:00,
2013-12-04 19:13:00,55.4,46.9,29.88,WSW,248,4.5,5.8,73,0.00,OVC,,0.00,WeatherDisplay:10.37,2013-12-05 00:13:00,
2013-12-04 19:18:00,55.4,46.9,29.89,South,180,6.1,7.0,73,0.00,OVC,,0.00,WeatherDisplay:10.37,2013-12-05 00:18:00,
2013-12-04 19:23:00,55.0,46.5,29.89,South,180,1.3,5.8,73,0.00,OVC,,0.00,WeatherDisplay:10.37,2013-12-05 00:23:00,
2013-12-04 19:28:00,55.0,46.5,29.88,South,180,2.5,4.6,73,0.00,OVC,,0.00,WeatherDisplay:10.37,2013-12-05 00:28:00,
2013-12-04 19:33:00,54.5,46.0,29.88,SSW,202,3.6,4.6,73,0.00,OVC,,0.00,WeatherDisplay:10.37,2013-12-05 00:33:00,
2013-12-04 19:38:00,54.3,46.2,29.88,SSE,158,6.0,9.2,74,0.00,OVC,,0.00,WeatherDisplay:10.37,2013-12-05 00:38:00,
2013-12-04 19:43:00,54.1,46.0,29.88,SSE,158,4.2,4.6,74,0.00,OVC,,0.00,WeatherDisplay:10.37,2013-12-05 00:43:00,
2013-12-04 19:48:00,54.1,46.0,29.88,South,180,2.4,5.8,74,0.00,OVC,,0.00,WeatherDisplay:10.37,2013-12-05 00:48:00,
2013-12-04 19:53:00,53.8,46.1,29.88,South,180,3.7,4.4,75,0.00,OVC,,0.00,WeatherDisplay:10.37,2013-12-05 00:53:00,
2013-12-04 19:58:00,53.6,45.9,29.88,South,180,0.0,5.8,75,0.00,OVC,,0.00,WeatherDisplay:10.37,2013-12-05 00:58:00,
2013-12-04 20:03:00,54.0,46.3,29.88,SSE,158,5.7,8.1,75,0.00,OVC,,0.00,WeatherDisplay:10.37,2013-12-05 01:03:00,
2013-12-04 20:08:00,54.3,46.5,29.88,SSE,158,4.9,8.1,75,0.00,OVC,,0.00,WeatherDisplay:10.37,2013-12-05 01:08:00,
2013-12-04 20:13:00,54.5,46.4,29.88,SSW,202,4.1,6.1,74,0.00,BKN,,0.00,WeatherDisplay:10.37,2013-12-05 01:13:00,
2013-12-04 20:18:00,54.9,46.8,29.89,SSW,202,5.4,8.1,74,0.00,BKN,,0.00,WeatherDisplay:10.37,2013-12-05 01:18:00,
2013-12-04 20:23:00,54.0,46.3,29.89,SSW,202,2.3,3.6,75,0.00,BKN,,0.00,WeatherDisplay:10.37,2013-12-05 01:23:00,
2013-12-04 20:28:00,54.0,46.3,29.88,SSE,158,2.9,3.6,75,0.00,BKN,,0.00,WeatherDisplay:10.37,2013-12-05 01:28:00,
2013-12-04 20:33:00,54.0,46.3,29.88,SSE,158,0.2,3.5,75,0.00,BKN,,0.00,WeatherDisplay:10.37,2013-12-05 01:33:00,
2013-12-04 20:38:00,53.8,46.4,29.88,SSE,158,0.2,3.5,76,0.00,BKN,,0.00,WeatherDisplay:10.37,2013-12-05 01:38:00,
2013-12-04 20:43:00,53.2,45.8,29.88,SSE,158,0.0,0.0,76,0.00,BKN,,0.00,WeatherDisplay:10.37,2013-12-05 01:43:00,
2013-12-04 20:48:00,52.9,46.2,29.88,SSE,158,2.7,3.5,78,0.00,BKN,,0.00,WeatherDisplay:10.37,2013-12-05 01:48:00,
2013-12-04 20:53:00,52.5,45.8,29.89,SSE,158,0.8,2.7,78,0.00,BKN,,0.00,WeatherDisplay:10.37,2013-12-05 01:53:00,
2013-12-04 20:58:00,52.3,45.6,29.89,NW,315,3.7,5.8,78,0.00,BKN,,0.00,WeatherDisplay:10.37,2013-12-05 01:58:00,
2013-12-04 21:03:00,51.8,45.8,29.88,NW,315,3.9,4.6,80,0.00,BKN,,0.00,WeatherDisplay:10.37,2013-12-05 02:03:00,
2013-12-04 21:08:00,51.4,45.8,29.88,NW,315,4.0,4.6,81,0.00,BKN,,0.00,WeatherDisplay:10.37,2013-12-05 02:08:00,
2013-12-04 21:13:00,51.3,45.7,29.88,NW,315,3.0,3.6,81,0.00,OVC,,0.00,WeatherDisplay:10.37,2013-12-05 02:13:00,
2013-12-04 21:18:00,50.9,45.6,29.89,NW,315,0.7,3.5,82,0.00,OVC,,0.00,WeatherDisplay:10.37,2013-12-05 02:18:00,
2013-12-04 21:23:00,50.5,45.5,29.89,NW,315,2.9,4.6,83,0.00,OVC,,0.00,WeatherDisplay:10.37,2013-12-05 02:23:00,
2013-12-04 21:28:00,50.4,45.4,29.89,NW,315,2.3,4.6,83,0.00,OVC,,0.00,WeatherDisplay:10.37,2013-12-05 02:28:00,
2013-12-04 21:33:00,50.2,45.6,29.89,NW,315,0.4,3.5,84,0.00,OVC,,0.00,WeatherDisplay:10.37,2013-12-05 02:33:00,
2013-12-04 21:38:00,50.0,45.4,29.89,NW,315,0.7,2.7,84,0.00,OVC,,0.00,WeatherDisplay:10.37,2013-12-05 02:38:00,
2013-12-04 21:43:00,49.6,45.0,29.89,NW,315,0.0,0.0,84,0.00,OVC,,0.00,WeatherDisplay:10.37,2013-12-05 02:43:00,
2013-12-04 21:48:00,49.5,45.2,29.89,NW,315,0.0,0.0,85,0.00,OVC,,0.00,WeatherDisplay:10.37,2013-12-05 02:48:00,
2013-12-04 21:53:00,49.6,45.3,29.89,SSE,158,0.6,2.7,85,0.00,OVC,,0.00,WeatherDisplay:10.37,2013-12-05 02:53:00,
2013-12-04 21:58:00,49.8,45.5,29.89,SSE,158,1.9,2.7,85,0.00,OVC,,0.00,WeatherDisplay:10.37,2013-12-05 02:58:00,
2013-12-04 22:03:00,50.5,45.5,29.89,SSE,158,2.4,4.6,83,0.00,OVC,,0.00,WeatherDisplay:10.37,2013-12-05 03:03:00,
2013-12-04 22:08:00,51.8,46.2,29.89,WSW,248,3.8,5.3,81,0.00,OVC,,0.00,WeatherDisplay:10.37,2013-12-05 03:08:00,
2013-12-04 22:13:00,53.2,46.9,29.89,South,180,3.7,4.6,79,0.00,OVC,,0.00,WeatherDisplay:10.37,2013-12-05 03:13:00,
2013-12-04 22:18:00,53.8,47.1,29.88,ESE,112,3.6,8.1,78,0.00,OVC,,0.00,WeatherDisplay:10.37,2013-12-05 03:18:00,
2013-12-04 22:23:00,54.5,47.1,29.88,SSW,202,3.3,6.9,76,0.00,OVC,,0.00,WeatherDisplay:10.37,2013-12-05 03:23:00,
2013-12-04 22:28:00,54.1,46.7,29.89,SSE,158,3.4,4.4,76,0.00,OVC,,0.00,WeatherDisplay:10.37,2013-12-05 03:28:00,
2013-12-04 22:33:00,54.3,46.9,29.89,South,180,2.6,5.8,76,0.00,OVC,,0.00,WeatherDisplay:10.37,2013-12-05 03:33:00,
2013-12-04 22:38:00,54.0,47.0,29.89,SSE,158,4.0,5.8,77,0.00,OVC,,0.00,WeatherDisplay:10.37,2013-12-05 03:38:00,
2013-12-04 22:43:00,53.4,46.4,29.89,South,180,2.3,4.4,77,0.00,OVC,,0.00,WeatherDisplay:10.37,2013-12-05 03:43:00,
2013-12-04 22:48:00,54.5,47.1,29.89,SSW,202,7.6,12.1,76,0.00,OVC,,0.00,WeatherDisplay:10.37,2013-12-05 03:48:00,
2013-12-04 22:53:00,54.5,47.1,29.88,South,180,5.5,9.2,76,0.00,OVC,,0.00,WeatherDisplay:10.37,2013-12-05 03:53:00,
2013-12-04 22:58:00,54.9,47.5,29.88,SW,225,6.3,9.5,76,0.00,OVC,,0.00,WeatherDisplay:10.37,2013-12-05 03:58:00,
2013-12-04 23:03:00,55.0,47.2,29.88,SSE,158,5.7,10.4,75,0.00,OVC,,0.00,WeatherDisplay:10.37,2013-12-05 04:03:00,
2013-12-04 23:08:00,55.4,47.6,29.88,SSE,158,4.0,11.5,75,0.00,OVC,,0.00,WeatherDisplay:10.37,2013-12-05 04:08:00,
2013-12-04 23:13:00,55.4,47.6,29.88,SSE,158,5.3,7.0,75,0.00,SCT,,0.00,WeatherDisplay:10.37,2013-12-05 04:13:00,
2013-12-04 23:18:00,55.2,47.4,29.89,SW,225,5.7,6.1,75,0.00,SCT,,0.00,WeatherDisplay:10.37,2013-12-05 04:18:00,
2013-12-04 23:23:00,55.0,47.2,29.89,South,180,5.2,7.0,75,0.00,SCT,,0.00,WeatherDisplay:10.37,2013-12-05 04:23:00,
2013-12-04 23:28:00,55.4,47.6,29.89,SSE,158,6.8,10.4,75,0.00,SCT,,0.00,WeatherDisplay:10.37,2013-12-05 04:28:00,
2013-12-04 23:33:00,55.4,47.6,29.89,SW,225,3.3,4.6,75,0.00,SCT,,0.00,WeatherDisplay:10.37,2013-12-05 04:33:00,
2013-12-04 23:38:00,55.4,47.6,29.89,South,180,4.5,5.8,75,0.00,SCT,,0.00,WeatherDisplay:10.37,2013-12-05 04:38:00,
2013-12-04 23:43:00,55.4,47.6,29.89,SW,225,5.7,7.0,75,0.00,SCT,,0.00,WeatherDisplay:10.37,2013-12-05 04:43:00,
2013-12-04 23:48:00,55.4,47.6,29.89,SSW,202,2.5,5.8,75,0.00,SCT,,0.00,WeatherDisplay:10.37,2013-12-05 04:48:00,
2013-12-04 23:53:00,55.4,47.6,29.89,SW,225,1.9,2.7,75,0.00,SCT,,0.00,WeatherDisplay:10.37,2013-12-05 04:53:00,
2013-12-04 23:58:00,55.0,47.6,29.89,SW,225,0.0,0.0,76,0.00,SCT,,0.00,WeatherDisplay:10.37,2013-12-05 04:58:00,